Location: Bieujac
(44.5398°N, 0.1549°W)
Time: 18:40:52
(UTC+00:00)

ATLAS 2AS CENTAUR R/B - Pass Details

Date: 17 November 2019
Orbit: 926 x 1286 km, 63.7° (Epoch: 09 December)

Event Time Altitude Azimuth Distance (km) Brightness Sun altitude
Exits shadow 03:31:59 26° 0° (N) 2,211 4.3 -36.7°
Maximum altitude 03:34:25 31° 31° (NNE) 1,988 4.3 -36.3°
Drops below altitude 10° 03:40:45 10° 91° (E) 3,031 5.8 -35.2°
Sets 03:43:45 0° 102° (ESE) 3,930 6.6 -34.7°
